sat.trackr.live / text

‹ back to catalog

FOSSASAT-2E19 (TAT-E)

NORAD 62676 · 2025-009BV

PAYLOAD ACTIVE UNKNOWN

§ Identity

Operator
Country
SPN
Launch date
2025-01-14
Launch site
AFWTR
Launch vehicle
Mass (kg)
RCS (m²)

External: N2YO · Heavens-Above · Gunter

§ Orbital elements

Epoch: 2026-05-24T22:52:03.156384Z

Period
94.67 min
Inclination
97.3959°
Eccentricity
0.0006689
Mean motion
15.21009158 rev/d
Perigee alt
498.2 km
Apogee alt
507.4 km
Semi-major
6,880.9 km
B*
1.1313e-4
RAAN
223.6465°
Arg perigee
69.1018°
Mean anomaly
291.0933°
Rev number
7,516

§ Raw data

FOSSASAT-2E19 (TAT-E)1 62676U 25009BV  26144.95281431  .00002441  00000+0  11313-3 0  99952 62676  97.3959 223.6465 0006689  69.1018 291.0933 15.21009158 75161

JSON: /api/v1/satellites/62676 · /tle

For live sub-satellite position, see the globe view (requires WebGL).

§ Visibility from observer

Set your observer location to see the next 7 days of passes ≥ 10°. The values pass through the URL so the page stays shareable.

No JS? Fill the form by hand. The geolocation button needs JavaScript.

§ Radio — SatNOGS DB

ModeDescriptionDownlinkUplink
LoRa Mode U - LoRa 401.700 MHz

1 transmitter · refreshed weekly from db.satnogs.org